Volver al catálogo

COSMOS 1506

ActivoMilitarPO
NORAD 14450·PAYLOAD·🇷🇺 Russia

Lanzado Oct 26, 1983 desde Plesetsk Cosmodrome

Loading…

Próximos Pases (próximas 24 horas)

TLE

ActualizadoSource: Space-Track

Época: Sep 14, 2026, 15:37 UTC

1 14450U 83108A   26257.65089206  .00000058  00000-0  42475-4 0  9991
2 14450  82.9319 205.0002 0044167 110.3512  63.6193 13.76547866969962

Sigue COSMOS 1506 en tiempo real con AllMySat

Download on the App Store